sim
Sign-in with your pilot id or email,
or register
Callsign
Passwort

Schedule Details

Flight Number: UAE9818 (A)
Departure: Dubai World Central International Airport (OMDW) at 13:20
Arrival: Mumbai Chhatrapati Shivaji International Airport (VABB) at 16:10
Route: Emirates Cargo Schedule. Enter filed route here before submitting Pirep.

Weather Information
Getting current METAR information for OMDW 091600Z 04007KT CAVOK 23/19 Q1017 NOSIG
Getting current METAR information for VABB 091600Z 33007KT 3500 FU NSC 29/23 Q1014 BECMG 4000 FU

Schedule Frequency

Route Map